Flag for Germany Weather past 2 weeks in Demmin, Mecklenburg-Western Pomerania, Germany

Now
53 °F

Drizzle. Overcast.


Feels Like: 50 °F
Forecast: 38 / 41 °F
Wind: 7 mph from Southwest

Location: Greifswald

Current Time: Dec 19, 2014 at 3:37:43 AM

Latest Report: Dec 19, 2014 at 3:00 AM


Visibility: 6 mi

Pressure: 29.57 "Hg

Humidity: 92%

Dew point: 51 °F

Location of DemminLocation

Historic Weather in Demmin — Graph

°F

Demmin temperature yesterday

Maximum temperature yesterday: 52 °F (at 11:00 PM)
Minimum temperature yesterday: 38 °F (at 12:00 AM)
Average temperature yesterday: 46 °F

Past Weeks' High & Low Weather Summary

 TemperatureHumidityPressure
High53 °F (Dec 19, 1:00 AM)100% (Dec 6, 8:00 PM)30.32 "Hg (Dec 6, 8:00 PM)
Low29 °F (Dec 7, 5:00 AM)75% (Dec 15, 11:00 AM)29.21 "Hg (Dec 12, 5:00 PM)
Average38 °F89%29.87 "Hg
* Reported Dec 4 2:00 AM — Dec 19 2:00 AM, Demmin, Weather by CustomWeather, © 2014

Note: Actual official high and low records may vary slightly from our data, if they occured in-between our weather recording intervals... More about our weather records

Advertising

Demmin weather history for previous 24 hours

 ConditionsComfort  
Time TempWeatherWind HumidityBarometerVisibility
2:00 AM
Dec 19
53 °FLight rain. Overcast.7 mph93%29.57 "Hg6 mi
1:00 AM53 °FLight rain. Low clouds.7 mph94%29.56 "Hg9 mi
12:00 AM52 °FDrizzle. Low clouds.7 mph95%29.55 "Hg3 mi
11:00 PM
Dec 18
52 °FDrizzle. Overcast.7 mph93%29.54 "Hg6 mi
9:00 PM51 °FLight rain. Low clouds.7 mph94%29.55 "Hg6 mi
8:00 PM51 °FLight rain. Low clouds.7 mph95%29.56 "Hg3 mi
7:00 PM50 °FDrizzle. Overcast.6 mph94%29.57 "Hg3 mi
6:00 PM50 °FLow clouds.6 mph94%29.59 "Hg4 mi
5:00 PM50 °FDrizzle. Low clouds.6 mph96%29.61 "Hg4 mi
3:00 PM50 °FLow clouds.6 mph94%29.63 "Hg4 mi
2:00 PM49 °FDrizzle. Low clouds.5 mph96%29.65 "Hg1 mi
1:00 PM48 °FLight rain. Low clouds.5 mph97%29.67 "Hg2 mi
12:00 PM48 °FRain. Low clouds.5 mph93%29.68 "Hg2 mi
11:00 AM47 °FLow clouds.5 mph91%29.71 "Hg6 mi
9:00 AM45 °FOvercast.3 mph90%29.71 "Hg10 mi
8:00 AM45 °FOvercast.3 mph93%29.71 "Hg7 mi
7:00 AM43 °FPassing clouds.3 mph94%29.70 "Hg7 mi
6:00 AM43 °FOvercast.5 mph96%29.69 "Hg5 mi
5:00 AM42 °FFog.5 mph96%29.67 "Hg4 mi
3:00 AM39 °FLow clouds.3 mph97%29.65 "Hg2 mi
Weather by CustomWeather, © 2014

See weather overviewHow to use our weather pages